{"data":{"norad_id":57242,"epoch":"2026-09-20T17:04:19.797600Z","epoch_age_seconds":106070,"freshness":"FRESH","line1":"1 57242U 23094AA  26263.71134025 -.00000754  00000+0 -17885-4 0  9990","line2":"2 57242  43.0048 358.7183 0001340 275.9202  84.1497 15.27573260177063","mean_motion":15.2757326,"eccentricity":0.000134,"inclination_deg":43.0048,"raan_deg":358.7183,"arg_perigee_deg":275.9202,"mean_anomaly_deg":84.1497,"bstar":-1.7885e-5,"rev_number":17706,"period_min":94.267164639947,"perigee_km":482.1498764573,"apogee_km":483.98867973983,"semimajor_km":6861.2062780986,"source":"CELESTRAK","updated_at":"2026-09-21T09:00:33.589244Z"}}